Location: Unspecified
(41.5516°N, 88.1098°W)
Time: 08:49:33
(UTC-05:00)

Okean 3 - Visible Passes

Search period start: 24 August 2016 00:00
Search period end: 03 September 2016 00:00
Orbit: 578 x 604 km, 82.5° (Epoch: 23 August)

Date Brightness Start Highest point End Pass type
(mag) Time Alt. Az. Time Alt. Az. Time Alt. Az.
31 Aug 6.6 04:58:53 10° ESE 05:01:03 14° E 05:03:14 10° NE visible
01 Sep 6.2 05:06:13 10° SE 05:09:22 21° E 05:12:30 10° NE visible
02 Sep 5.5 05:13:59 10° SSE 05:17:41 30° E 05:21:24 10° NNE visible
